リニア-スペースウォッチ彗星

381P/LINEAR-Spacewatch (2019)

English version
Home page
Updated on November 9, 2019

---------------------------------------------------------------------

・ プロフィール

符号 381P/2019 K2
検出日 2019年5月29日、6月1日
検出光度 21.6等、21.0等
検出者 Pan-STARRS 1 telescope (Haleakala), Mt. Lemmon Survey

・ 軌道要素

Epoch 2019 Oct. 4.0 TT = JDT 2458760.5
T 2019 Sept. 26.87749 TT                                Williams
q   2.2654035            (2000.0)            P               Q
n   0.05197003     Peri.  173.09215     +0.97547595     +0.21402141
a   7.1116014      Node   173.79197     -0.21775228     +0.97242396
e   0.6814496      Incl.   28.37726     -0.03210328     -0.09266331
P  19.0
From 159 observations 2000 Sept. 1-2019 Oct. 24, mean residual 0".4.

・ 光度変化

        m1 = 11.0 + 5 logΔ + 20.0 log r

---------------------------------------------------------------------

軌道要素はM.P.E.C. 2019-V116に掲載されたものです。
光度グラフはComet for Windowsで作成したものです。

---------------------------------------------------------------------

Copyright(C) Seiichi Yoshida (comet@aerith.net). All rights reserved.